Tracking 19846 objects as of 18-Sep-2019
HD Live streaming from Space Station
objects crossing your sky now

FENGYUN 1C DEB

Track FENGYUN 1C DEB now!
10-day predictions


NORAD ID: 31926
Int'l Code: 1999-025CMD
Perigee: 826.9 km
Apogee: 894.6 km
Inclination: 99.1 °
Period: 102.0 minutes
Semi major axis: 7231 km
RCS: 0.0122 m2 (small)
Launch date: May 10, 1999
Source: People's Republic of China (PRC)
Launch site: Taiyaun Space Center, China (TSC)

Note: This is SATELLITE DEBRIS
aabbcc
Your satellite tracking list
Your tracking list is empty




NASA's NSSDC Master Catalog

Two Line Element Set (TLE):
1 31926U 99025CMD 19258.09292067  .00000868  00000-0  49703-3 0  9994
2 31926  99.0557 293.6472 0046788 251.5807 133.1752 14.11674723630076
Source of the keplerian elements: AFSPC